QPF
0.02 0.03 0.03 0.03 0.04 0.05 0.05 0.06 0.07 0.08 0.08 0.09 0.09 0.07 0.06 0.06 0.05 0.04 0.07 0.06 0.04 0.03 0.02 0.01 0.01 0.01 0.00 0.00 0.00 0.01 0.03 0.08 0.13 0.13 0.10 0.09 0.09 0.07
0.03 0.04 0.04 0.03 0.04 0.04 0.04 0.05 0.05 0.06 0.05 0.04 0.04 0.04 0.04 0.04 0.05 0.05 0.07 0.06 0.04 0.02 0.02 0.01 0.01 0.00 0.00 0.00 0.01 0.01 0.02 0.06 0.11 0.15 0.13 0.09 0.07 0.06
0.03 0.02 0.02 0.02 0.03 0.02 0.03 0.03 0.05 0.05 0.05 0.05 0.06 0.06 0.05 0.05 0.06 0.06 0.06 0.06 0.06 0.04 0.02 0.01 0.01 0.00 0.01 0.01 0.01 0.02 0.04 0.07 0.11 0.15 0.16 0.11 0.08 0.05
0.01 0.01 0.00 0.01 0.01 0.01 0.01 0.01 0.02 0.03 0.04 0.06 0.08 0.08 0.08 0.07 0.06 0.07 0.07 0.06 0.07 0.07 0.04 0.03 0.02 0.02 0.02 0.03 0.05 0.06 0.08 0.11 0.12 0.13 0.13 0.11 0.07 0.04
0.00 0.00 0.00 0.01 0.01 0.01 0.00 0.00 0.01 0.01 0.04 0.07 0.08 0.10 0.11 0.10 0.10 0.10 0.10 0.10 0.10 0.09 0.06 0.05 0.06 0.06 0.07 0.08 0.10 0.13 0.13 0.12 0.13 0.13 0.11 0.09 0.06 0.03
0.00 0.00 0.00 0.00 0.00 0.00 0.00 0.00 0.00 0.01 0.03 0.06 0.08 0.09 0.09 0.09 0.10 0.12 0.14 0.16 0.17 0.14 0.10 0.07 0.07 0.11 0.13 0.12 0.15 0.19 0.19 0.17 0.15 0.14 0.11 0.08 0.05 0.02
0.00 0.00 0.00 0.00 0.00 0.00 0.00 0.00 0.00 0.01 0.01 0.03 0.04 0.04 0.04 0.04 0.05 0.07 0.12 0.17 0.20 0.22 0.20 0.14 0.09 0.10 0.12 0.12 0.15 0.22 0.27 0.24 0.19 0.13 0.10 0.07 0.03 0.01
0.00 0.00 0.00 0.00 0.00 0.00 0.00 0.00 0.00 0.00 0.01 0.01 0.01 0.01 0.01 0.01 0.02 0.04 0.09 0.17 0.25 0.30 0.30 0.25 0.17 0.15 0.12 0.08 0.10 0.15 0.23 0.24 0.18 0.12 0.07 0.04 0.01 0.00
0.00 0.00 0.00 0.00 0.00 0.00 0.00 0.00 0.00 0.00 0.00 0.01 0.01 0.01 0.00 0.01 0.01 0.03 0.06 0.13 0.24 0.37 0.42 0.42 0.30 0.22 0.16 0.09 0.05 0.07 0.12 0.13 0.11 0.06 0.03 0.02 0.01 0.00
0.00 0.00 0.00 0.00 0.00 0.00 0.00 0.00 0.00 0.00 0.00 0.00 0.00 0.00 0.00 0.00 0.01 0.02 0.04 0.09 0.16 0.29 0.42 0.56 0.53 0.37 0.23 0.15 0.07 0.04 0.04 0.04 0.03 0.02 0.01 0.01 0.00 0.00
0.00 0.00 0.00 0.00 0.00 0.00 0.00 0.00 0.00 0.00 0.00 0.00 0.00 0.00 0.00 0.00 0.01 0.02 0.02 0.04 0.08 0.16 0.32 0.55 0.70 0.62 0.45 0.32 0.20 0.10 0.06 0.04 0.03 0.02 0.01 0.01 0.01 0.01
0.00 0.00 0.00 0.00 0.00 0.00 0.00 0.00 0.00 0.00 0.00 0.00 0.01 0.01 0.00 0.00 0.00 0.00 0.01 0.03 0.05 0.08 0.11 0.21 0.34 0.46 0.53 0.51 0.42 0.29 0.19 0.12 0.08 0.05 0.03 0.03 0.03 0.01
0.00 0.00 0.00 0.00 0.00 0.00 0.00 0.00 0.00 0.00 0.00 0.00 0.00 0.00 0.00 0.00 0.00 0.00 0.01 0.03 0.05 0.06 0.06 0.08 0.16 0.24 0.30 0.39 0.44 0.42 0.35 0.27 0.19 0.13 0.09 0.06 0.04 0.02
0.00 0.00 0.00 0.00 0.00 0.00 0.00 0.00 0.00 0.00 0.00 0.00 0.00 0.00 0.00 0.00 0.00 0.01 0.01 0.02 0.03 0.03 0.04 0.05 0.08 0.12 0.16 0.20 0.26 0.30 0.32 0.30 0.26 0.23 0.19 0.14 0.10 0.06
0.00 0.00 0.00 0.00 0.00 0.00 0.00 0.00 0.00 0.00 0.00 0.00 0.00 0.00 0.00 0.00 0.00 0.01 0.01 0.01 0.01 0.01 0.01 0.01 0.04 0.07 0.10 0.15 0.17 0.18 0.21 0.22 0.21 0.21 0.23 0.21 0.15 0.09
0.00 0.00 0.00 0.00 0.00 0.00 0.00 0.00 0.00 0.00 0.00 0.00 0.00 0.00 0.00 0.00 0.00 0.01 0.01 0.01 0.01 0.02 0.01 0.01 0.02 0.05 0.10 0.13 0.13 0.13 0.14 0.16 0.16 0.15 0.14 0.14 0.14 0.12
0.00 0.00 0.00 0.00 0.00 0.00 0.00 0.00 0.00 0.00 0.00 0.00 0.00 0.00 0.00 0.00 0.00 0.00 0.00 0.01 0.01 0.01 0.02 0.02 0.02 0.04 0.05 0.07 0.09 0.10 0.11 0.10 0.12 0.11 0.08 0.07 0.06 0.06
0.00 0.00 0.00 0.00 0.00 0.00 0.00 0.00 0.00 0.00 0.00 0.00 0.00 0.00 0.00 0.00 0.00 0.00 0.00 0.00 0.01 0.01 0.02 0.02 0.03 0.06 0.09 0.08 0.05 0.06 0.09 0.09 0.10 0.11 0.08 0.05 0.04 0.04
0.00 0.00 0.00 0.00 0.00 0.00 0.00 0.00 0.00 0.00 0.00 0.00 0.00 0.00 0.00 0.00 0.00 0.00 0.00 0.00 0.01 0.01 0.02 0.02 0.02 0.04 0.06 0.09 0.10 0.04 0.04 0.08 0.11 0.14 0.15 0.10 0.06 0.03
0.00 0.00 0.00 0.00 0.00 0.00 0.00 0.00 0.00 0.00 0.00 0.00 0.00 0.00 0.00 0.00 0.00 0.00 0.00 0.00 0.00 0.00 0.01 0.01 0.01 0.01 0.03 0.05 0.09 0.10 0.05 0.04 0.07 0.12 0.14 0.12 0.08 0.04
0.00 0.00 0.00 0.00 0.00 0.00 0.00 0.00 0.00 0.00 0.00 0.00 0.00 0.00 0.00 0.00 0.00 0.00 0.00 0.00 0.00 0.00 0.00 0.01 0.01 0.01 0.03 0.08 0.10 0.13 0.12 0.06 0.04 0.05 0.10 0.13 0.12 0.10
0.00 0.00 0.00 0.00 0.00 0.00 0.00 0.00 0.00 0.00 0.00 0.00 0.00 0.00 0.00 0.00 0.00 0.00 0.00 0.00 0.00 0.00 0.00 0.00 0.01 0.01 0.03 0.06 0.09 0.11 0.12 0.11 0.08 0.05 0.04 0.06 0.09 0.11
0.00 0.00 0.00 0.00 0.00 0.00 0.00 0.00 0.00 0.00 0.00 0.00 0.00 0.00 0.00 0.00 0.00 0.00 0.00 0.00 0.00 0.00 0.00 0.00 0.01 0.01 0.02 0.03 0.06 0.09 0.09 0.09 0.10 0.11 0.09 0.05 0.03 0.03
MSLP
1011.10 1011.00 1010.86 1010.71 1010.53 1010.35 1010.15 1009.96 1009.76 1009.54 1009.32 1009.08 1008.83 1008.57 1008.33 1008.12 1007.96 1007.87 1007.86 1007.91 1008.01 1008.12 1008.21 1008.25 1008.21 1008.10 1007.92 1007.73 1007.57 1007.51 1007.60 1007.87 1008.35 1009.03 1009.88 1010.85 1011.87 1012.89
1011.03 1010.92 1010.78 1010.62 1010.44 1010.25 1010.05 1009.85 1009.65 1009.43 1009.19 1008.94 1008.67 1008.40 1008.13 1007.90 1007.72 1007.61 1007.57 1007.59 1007.65 1007.72 1007.77 1007.76 1007.67 1007.51 1007.30 1007.07 1006.88 1006.80 1006.88 1007.16 1007.66 1008.36 1009.23 1010.23 1011.29 1012.34
1011.08 1010.96 1010.81 1010.63 1010.44 1010.23 1010.02 1009.80 1009.58 1009.36 1009.11 1008.85 1008.57 1008.29 1008.02 1007.78 1007.59 1007.46 1007.39 1007.38 1007.40 1007.42 1007.41 1007.35 1007.21 1007.01 1006.77 1006.52 1006.33 1006.26 1006.35 1006.65 1007.16 1007.88 1008.78 1009.79 1010.86 1011.91
1011.30 1011.18 1011.01 1010.82 1010.60 1010.38 1010.14 1009.91 1009.67 1009.42 1009.16 1008.89 1008.61 1008.33 1008.06 1007.81 1007.61 1007.46 1007.36 1007.31 1007.28 1007.25 1007.18 1007.07 1006.89 1006.66 1006.40 1006.16 1005.99 1005.94 1006.06 1006.39 1006.93 1007.66 1008.56 1009.57 1010.62 1011.66
1011.68 1011.56 1011.40 1011.19 1010.96 1010.72 1010.46 1010.20 1009.94 1009.67 1009.39 1009.11 1008.82 1008.53 1008.25 1008.00 1007.79 1007.62 1007.49 1007.39 1007.31 1007.22 1007.10 1006.94 1006.73 1006.49 1006.24 1006.02 1005.88 1005.88 1006.05 1006.41 1006.97 1007.72 1008.61 1009.59 1010.61 1011.60
1012.17 1012.07 1011.92 1011.72 1011.48 1011.23 1010.95 1010.67 1010.38 1010.08 1009.79 1009.48 1009.17 1008.88 1008.59 1008.32 1008.09 1007.89 1007.73 1007.59 1007.46 1007.32 1007.16 1006.97 1006.74 1006.50 1006.27 1006.09 1006.01 1006.06 1006.28 1006.68 1007.27 1008.02 1008.89 1009.83 1010.79 1011.71
1012.71 1012.63 1012.50 1012.31 1012.09 1011.83 1011.55 1011.24 1010.93 1010.61 1010.28 1009.95 1009.62 1009.30 1009.00 1008.71 1008.46 1008.24 1008.04 1007.86 1007.69 1007.52 1007.32 1007.11 1006.88 1006.66 1006.47 1006.34 1006.32 1006.43 1006.70 1007.14 1007.75 1008.48 1009.32 1010.20 1011.08 1011.92
1013.21 1013.15 1013.04 1012.88 1012.68 1012.42 1012.14 1011.83 1011.49 1011.15 1010.79 1010.43 1010.07 1009.73 1009.40 1009.10 1008.82 1008.58 1008.36 1008.15 1007.95 1007.76 1007.55 1007.33 1007.12 1006.93 1006.77 1006.70 1006.74 1006.90 1007.22 1007.69 1008.29 1009.01 1009.79 1010.61 1011.40 1012.14
1013.60 1013.57 1013.48 1013.35 1013.16 1012.93 1012.65 1012.33 1011.98 1011.62 1011.23 1010.85 1010.46 1010.09 1009.74 1009.42 1009.13 1008.87 1008.63 1008.42 1008.21 1008.00 1007.80 1007.59 1007.40 1007.24 1007.13 1007.11 1007.19 1007.40 1007.74 1008.22 1008.81 1009.48 1010.20 1010.93 1011.63 1012.27
1013.86 1013.84 1013.78 1013.67 1013.51 1013.29 1013.02 1012.71 1012.35 1011.97 1011.57 1011.16 1010.76 1010.37 1010.00 1009.67 1009.37 1009.10 1008.86 1008.64 1008.44 1008.24 1008.05 1007.86 1007.70 1007.57 1007.50 1007.50 1007.62 1007.84 1008.19 1008.65 1009.20 1009.81 1010.45 1011.09 1011.68 1012.21
1014.01 1013.99 1013.94 1013.85 1013.71 1013.51 1013.26 1012.96 1012.61 1012.23 1011.82 1011.40 1010.98 1010.58 1010.20 1009.86 1009.56 1009.29 1009.06 1008.84 1008.65 1008.47 1008.29 1008.13 1007.98 1007.88 1007.83 1007.86 1007.97 1008.19 1008.52 1008.93 1009.42 1009.96 1010.51 1011.04 1011.53 1011.95
1014.10 1014.08 1014.03 1013.95 1013.82 1013.64 1013.41 1013.13 1012.80 1012.42 1012.02 1011.60 1011.18 1010.78 1010.40 1010.06 1009.76 1009.49 1009.26 1009.06 1008.87 1008.70 1008.54 1008.39 1008.26 1008.17 1008.13 1008.15 1008.25 1008.44 1008.72 1009.08 1009.49 1009.93 1010.39 1010.81 1011.19 1011.51
1014.18 1014.15 1014.10 1014.02 1013.90 1013.75 1013.54 1013.28 1012.98 1012.63 1012.24 1011.84 1011.43 1011.03 1010.66 1010.32 1010.01 1009.74 1009.51 1009.31 1009.13 1008.96 1008.81 1008.67 1008.54 1008.45 1008.40 1008.40 1008.47 1008.62 1008.84 1009.12 1009.44 1009.79 1010.14 1010.47 1010.75 1010.97
1014.31 1014.25 1014.19 1014.11 1014.00 1013.86 1013.68 1013.46 1013.20 1012.88 1012.54 1012.16 1011.77 1011.39 1011.02 1010.67 1010.36 1010.08 1009.84 1009.62 1009.43 1009.26 1009.10 1008.95 1008.82 1008.72 1008.65 1008.63 1008.66 1008.76 1008.91 1009.11 1009.35 1009.61 1009.87 1010.10 1010.29 1010.43
1014.47 1014.39 1014.30 1014.22 1014.12 1014.01 1013.86 1013.69 1013.47 1013.21 1012.91 1012.57 1012.21 1011.85 1011.48 1011.13 1010.80 1010.50 1010.24 1010.00 1009.78 1009.59 1009.41 1009.25 1009.11 1008.99 1008.90 1008.85 1008.84 1008.89 1008.98 1009.12 1009.28 1009.46 1009.64 1009.79 1009.91 1009.99
1014.62 1014.52 1014.42 1014.33 1014.24 1014.15 1014.05 1013.93 1013.77 1013.57 1013.33 1013.04 1012.72 1012.38 1012.02 1011.66 1011.32 1010.99 1010.69 1010.41 1010.16 1009.94 1009.73 1009.55 1009.39 1009.25 1009.14 1009.07 1009.04 1009.05 1009.10 1009.18 1009.29 1009.41 1009.52 1009.62 1009.68 1009.71
1014.71 1014.59 1014.47 1014.38 1014.31 1014.25 1014.20 1014.13 1014.04 1013.91 1013.74 1013.51 1013.24 1012.92 1012.58 1012.22 1011.86 1011.50 1011.16 1010.84 1010.55 1010.29 1010.05 1009.84 1009.67 1009.51 1009.39 1009.31 1009.26 1009.25 1009.27 1009.32 1009.39 1009.46 1009.54 1009.59 1009.62 1009.62
1014.67 1014.53 1014.40 1014.31 1014.26 1014.24 1014.23 1014.23 1014.22 1014.17 1014.07 1013.91 1013.70 1013.42 1013.10 1012.75 1012.37 1011.99 1011.62 1011.26 1010.93 1010.64 1010.37 1010.14 1009.95 1009.79 1009.66 1009.57 1009.51 1009.49 1009.50 1009.53 1009.57 1009.63 1009.67 1009.70 1009.71 1009.69
1014.46 1014.31 1014.18 1014.10 1014.07 1014.09 1014.14 1014.20 1014.26 1014.29 1014.28 1014.20 1014.05 1013.82 1013.54 1013.20 1012.83 1012.44 1012.05 1011.67 1011.32 1011.00 1010.71 1010.46 1010.26 1010.09 1009.96 1009.86 1009.80 1009.77 1009.77 1009.79 1009.82 1009.85 1009.88 1009.89 1009.89 1009.86
1014.07 1013.92 1013.80 1013.74 1013.74 1013.80 1013.90 1014.03 1014.17 1014.28 1014.35 1014.35 1014.27 1014.11 1013.88 1013.58 1013.24 1012.86 1012.47 1012.08 1011.72 1011.39 1011.09 1010.83 1010.61 1010.43 1010.29 1010.19 1010.12 1010.08 1010.06 1010.06 1010.07 1010.09 1010.10 1010.10 1010.08 1010.04
1013.54 1013.40 1013.30 1013.26 1013.30 1013.40 1013.56 1013.75 1013.96 1014.15 1014.30 1014.38 1014.38 1014.30 1014.13 1013.89 1013.59 1013.25 1012.88 1012.51 1012.15 1011.82 1011.52 1011.25 1011.02 1010.83 1010.67 1010.55 1010.45 1010.39 1010.35 1010.32 1010.31 1010.30 1010.28 1010.26 1010.23 1010.18
1012.90 1012.79 1012.72 1012.72 1012.79 1012.94 1013.15 1013.40 1013.68 1013.94 1014.16 1014.32 1014.40 1014.40 1014.30 1014.13 1013.90 1013.61 1013.29 1012.96 1012.63 1012.31 1012.01 1011.73 1011.49 1011.27 1011.09 1010.93 1010.80 1010.69 1010.61 1010.54 1010.49 1010.45 1010.40 1010.35 1010.30 1010.23
1012.20 1012.13 1012.10 1012.15 1012.27 1012.46 1012.72 1013.03 1013.36 1013.68 1013.97 1014.20 1014.36 1014.43 1014.42 1014.33 1014.17 1013.95 1013.69 1013.41 1013.11 1012.82 1012.53 1012.25 1011.99 1011.74 1011.52 1011.31 1011.13 1010.97 1010.83 1010.72 1010.62 1010.53 1010.45 1010.37 1010.29 1010.20
Thickness
5690 5691 5691 5692 5693 5694 5694 5694 5691 5691 5694 5696 5696 5698 5697 5698 5697 5699 5699 5698 5697 5698 5698 5699 5701 5703 5706 5710 5713 5715 5716 5717 5715 5712 5706 5699 5692 5686
5681 5680 5680 5683 5684 5686 5686 5686 5685 5683 5684 5689 5687 5688 5688 5689 5689 5690 5690 5689 5689 5689 5690 5692 5694 5698 5702 5706 5710 5712 5712 5713 5711 5708 5702 5695 5688 5682
5671 5670 5669 5671 5674 5677 5678 5679 5678 5677 5676 5680 5681 5681 5679 5678 5679 5679 5680 5681 5682 5681 5682 5684 5686 5691 5695 5700 5704 5707 5708 5708 5706 5702 5697 5690 5683 5678
5659 5658 5659 5661 5661 5664 5666 5668 5669 5669 5669 5668 5671 5672 5671 5670 5670 5669 5669 5671 5672 5672 5673 5675 5678 5683 5687 5693 5697 5700 5702 5701 5700 5696 5690 5684 5678 5672
5647 5647 5647 5648 5649 5652 5653 5656 5660 5663 5662 5662 5662 5662 5662 5662 5662 5662 5663 5662 5664 5664 5664 5666 5669 5673 5678 5683 5687 5691 5693 5693 5691 5688 5683 5677 5671 5666
5634 5634 5635 5635 5636 5639 5642 5644 5648 5651 5653 5654 5652 5653 5653 5654 5654 5653 5655 5656 5656 5658 5658 5658 5660 5663 5668 5672 5676 5679 5681 5682 5681 5678 5674 5669 5664 5659
5622 5622 5621 5620 5619 5623 5628 5630 5635 5638 5642 5642 5641 5642 5641 5642 5642 5644 5645 5648 5650 5650 5650 5651 5653 5656 5658 5660 5663 5666 5668 5669 5668 5666 5662 5658 5654 5651
5611 5612 5613 5611 5611 5611 5612 5612 5615 5620 5623 5627 5628 5626 5626 5629 5631 5634 5634 5637 5638 5640 5641 5643 5645 5646 5649 5651 5652 5653 5654 5654 5653 5651 5649 5646 5643 5641
5601 5602 5604 5602 5602 5606 5604 5603 5603 5603 5604 5609 5611 5610 5615 5617 5620 5624 5624 5624 5625 5627 5631 5633 5635 5637 5639 5640 5641 5641 5641 5641 5640 5638 5636 5635 5633 5632
5592 5592 5592 5591 5589 5590 5595 5595 5596 5594 5594 5597 5596 5596 5600 5603 5609 5615 5617 5617 5617 5618 5621 5621 5624 5626 5628 5630 5630 5630 5630 5629 5628 5627 5626 5625 5625 5625
5583 5581 5582 5581 5575 5578 5585 5585 5586 5585 5583 5582 5581 5583 5585 5589 5595 5604 5607 5611 5609 5609 5610 5611 5613 5616 5619 5619 5620 5620 5620 5619 5619 5618 5618 5618 5618 5617
5578 5576 5569 5568 5566 5568 5575 5575 5573 5574 5576 5578 5576 5577 5580 5583 5585 5588 5594 5597 5599 5600 5601 5603 5605 5607 5608 5610 5611 5612 5612 5612 5612 5612 5613 5613 5613 5613
5576 5574 5567 5560 5559 5559 5561 5562 5559 5559 5567 5568 5569 5569 5571 5572 5574 5576 5578 5581 5584 5587 5590 5594 5597 5599 5600 5601 5603 5604 5605 5606 5607 5608 5608 5609 5610 5611
5569 5568 5560 5553 5551 5551 5552 5548 5549 5552 5558 5558 5557 5556 5557 5558 5559 5562 5564 5567 5570 5574 5577 5581 5586 5589 5592 5593 5594 5596 5598 5600 5601 5603 5605 5605 5605 5607
5561 5552 5550 5547 5545 5546 5542 5542 5544 5546 5545 5544 5543 5543 5544 5544 5547 5550 5555 5557 5560 5563 5566 5569 5573 5578 5582 5584 5585 5587 5589 5591 5594 5596 5598 5600 5602 5604
5556 5548 5544 5543 5543 5539 5539 5540 5538 5533 5531 5531 5531 5531 5533 5534 5536 5537 5540 5544 5549 5551 5553 5556 5559 5564 5569 5571 5574 5576 5578 5580 5583 5585 5588 5590 5592 5595
5553 5553 5552 5549 5546 5542 5538 5533 5530 5527 5525 5522 5521 5521 5522 5523 5524 5526 5527 5531 5534 5536 5539 5543 5547 5550 5553 5556 5560 5562 5564 5566 5569 5573 5576 5578 5580 5583
5548 5551 5548 5545 5541 5537 5533 5529 5524 5518 5515 5515 5513 5511 5511 5512 5514 5515 5517 5518 5520 5521 5523 5527 5531 5536 5540 5540 5538 5547 5550 5553 5555 5560 5565 5567 5570 5572
5547 5548 5544 5541 5537 5533 5528 5524 5518 5512 5507 5507 5505 5503 5503 5503 5503 5504 5505 5505 5507 5508 5510 5512 5514 5517 5522 5525 5526 5526 5533 5538 5543 5547 5551 5554 5558 5561
5548 5546 5542 5538 5533 5528 5524 5519 5514 5509 5505 5501 5498 5495 5495 5495 5494 5493 5494 5490 5493 5496 5498 5499 5499 5499 5502 5507 5511 5514 5515 5522 5529 5533 5537 5542 5545 5546
5547 5545 5542 5537 5532 5527 5521 5515 5510 5505 5498 5495 5493 5488 5488 5487 5485 5484 5484 5480 5481 5485 5485 5486 5485 5484 5491 5495 5498 5502 5504 5505 5510 5516 5523 5528 5533 5536
5547 5544 5541 5536 5531 5526 5520 5514 5510 5504 5497 5494 5489 5484 5482 5480 5478 5476 5475 5474 5474 5474 5474 5476 5476 5478 5481 5483 5486 5489 5492 5495 5497 5501 5506 5510 5516 5522
5546 5543 5541 5537 5532 5525 5520 5514 5508 5503 5496 5490 5485 5480 5476 5473 5470 5469 5467 5465 5464 5463 5464 5465 5466 5467 5469 5471 5474 5477 5480 5484 5488 5492 5496 5498 5502 5507